TimePDT,TemperatureF,Dew PointF,Humidity,Sea Level PressureIn,VisibilityMPH,Wind Direction,Wind SpeedMPH,Gust SpeedMPH,PrecipitationIn,Events,Conditions,WindDirDegrees,DateUTC
12:53 AM,57.9,41.0,53,29.73,10.0,WSW,13.8,-,N/A,,Clear,240,2013-04-14 07:53:00
1:53 AM,59.0,41.0,51,29.72,10.0,SW,17.3,26.5,N/A,,Clear,230,2013-04-14 08:53:00
2:53 AM,55.9,42.1,60,29.71,10.0,SW,13.8,-,N/A,,Clear,230,2013-04-14 09:53:00
3:53 AM,54.0,43.0,66,29.72,10.0,SSW,15.0,-,N/A,,Clear,210,2013-04-14 10:53:00
4:53 AM,55.0,43.0,64,29.72,10.0,WSW,15.0,-,N/A,,Clear,250,2013-04-14 11:53:00
5:53 AM,54.0,43.0,66,29.72,10.0,WSW,15.0,-,N/A,,Clear,240,2013-04-14 12:53:00
6:53 AM,54.0,43.0,66,29.74,10.0,South,9.2,-,N/A,,Clear,190,2013-04-14 13:53:00
7:53 AM,57.9,43.0,58,29.73,10.0,SW,13.8,-,N/A,,Clear,230,2013-04-14 14:53:00
8:53 AM,62.1,42.1,48,29.75,10.0,WSW,11.5,-,N/A,,Clear,240,2013-04-14 15:53:00
9:53 AM,64.9,42.1,43,29.75,10.0,WSW,15.0,-,N/A,,Clear,250,2013-04-14 16:53:00
10:53 AM,69.1,42.1,38,29.75,10.0,West,15.0,24.2,N/A,,Clear,260,2013-04-14 17:53:00
11:53 AM,72.0,39.0,30,29.72,10.0,WSW,17.3,25.3,N/A,,Clear,250,2013-04-14 18:53:00
12:53 PM,73.0,37.0,27,29.71,10.0,West,19.6,25.3,N/A,,Clear,260,2013-04-14 19:53:00
1:53 PM,75.0,32.0,21,29.71,10.0,WNW,28.8,36.8,N/A,,Clear,290,2013-04-14 20:53:00
2:53 PM,75.0,34.0,22,29.69,10.0,West,19.6,32.2,N/A,,Clear,270,2013-04-14 21:53:00
3:53 PM,75.0,35.1,23,29.68,6.0,WNW,35.7,43.7,N/A,,Haze,290,2013-04-14 22:53:00
4:53 PM,71.1,42.1,35,29.69,10.0,WSW,16.1,25.3,N/A,,Clear,250,2013-04-14 23:53:00
5:53 PM,71.1,36.0,28,29.69,10.0,West,25.3,33.4,N/A,,Clear,270,2013-04-15 00:53:00
6:53 PM,63.0,42.1,46,29.72,10.0,WSW,20.7,29.9,N/A,,Clear,240,2013-04-15 01:53:00
7:53 PM,57.0,44.1,62,29.73,10.0,SW,21.9,-,N/A,,Clear,230,2013-04-15 02:53:00
8:53 PM,54.0,45.0,72,29.75,10.0,SW,24.2,-,N/A,,Clear,230,2013-04-15 03:53:00
9:53 PM,55.0,43.0,64,29.76,10.0,SW,20.7,-,N/A,,Clear,230,2013-04-15 04:53:00
10:53 PM,53.1,43.0,69,29.75,10.0,SW,20.7,-,N/A,,Clear,220,2013-04-15 05:53:00
11:53 PM,51.1,44.1,77,29.74,10.0,SW,24.2,-,N/A,,Clear,220,2013-04-15 06:53:00